Coleman, TX

10:22 PM CDT on September 27, 2016 (GMT -0500)
Coleman Municipal

Weather History for KCOM - January, 2014

Change the Weather History Date:

Saturday, January 25, 2014

  Actual Average (KABI) Record (KABI)
Temperature  
Mean Temperature 48 °F 46 °F  
Max Temperature 68 °F 58 °F 84 °F (1950)
Min Temperature 29 °F 33 °F 8 °F (1897)
Degree Days  
Heating Degree Days 16 20  
Month to date heating degree days 510  
Since 1 July heating degree days 1555  
Cooling Degree Days 0 0  
Month to date cooling degree days 0  
Year to date cooling degree days 0  
Moisture  
Dew Point 16 °F    
Average Humidity 28    
Maximum Humidity 49    
Minimum Humidity 14    
Precipitation  
Precipitation 0.00 in 0.04 in 1.43 in (2012)
Month to date precipitation 0.79  
Year to date precipitation 0.79  
Sea Level Pressure  
Sea Level Pressure 30.13 in    
Wind  
Wind Speed 6 mph (SW)    
Max Wind Speed 10 mph    
Max Gust Speed -    
Visibility 10 miles    
Events      
T = Trace of Precipitation, MM = Missing Value Source: NWS Daily Summary

Daily Weather History Graph

Daily Weather History Graph

Search for Another Location

Airport or City:

Trip Planner

Search our weather history database for the weather conditions in past years. The results will help you decide how hot, cold, wet, or windy it might be!

Date:

Astronomy

Jan. 25, 2014 Rise Set
Actual Time 7:34 AM CST 6:05 PM CST
Civil Twilight 7:08 AM CST 6:31 PM CST
Nautical Twilight 6:39 AM CST 7:00 PM CST
Astronomical Twilight 6:10 AM CST 7:29 PM CST
Moon 2:10 AM CST (1/25) 1:06 PM CST (1/25)
Length of Visible Light 11h 22m
Length of Day
10h 30m
Waning Crescent, 34% of the Moon is Illuminated
Jan 25
Waning Crescent
Jan 30
New
Feb 6
First Quarter
Feb 14
Full
Feb 22
Last Quarter

Hourly Weather History & Observations

Time (CST) Temp. Windchill Dew Point Humidity Pressure Visibility Wind Dir Wind Speed Gust Speed Precip Events Conditions
12:15 AM 36.9 °F 30.7 °F 11.7 °F 35% 30.26 in 10.0 mi WSW 8.1 mph - N/A   Clear
12:35 AM 36.9 °F 31.4 °F 11.3 °F 35% 30.25 in 10.0 mi West 6.9 mph - N/A   Clear
12:55 AM 37.9 °F 30.9 °F 11.3 °F 33% 30.24 in 10.0 mi WSW 10.4 mph - N/A   Clear
1:15 AM 36.7 °F 31.2 °F 11.3 °F 35% 30.23 in 10.0 mi WSW 6.9 mph - N/A   Clear
1:35 AM 36.3 °F 28.9 °F 11.7 °F 36% 30.22 in 10.0 mi WSW 10.4 mph - N/A   Clear
1:55 AM 36.5 °F 29.2 °F 11.8 °F 36% 30.22 in 10.0 mi WSW 10.4 mph - N/A   Clear
2:15 AM 35.6 °F 29.2 °F 12.0 °F 38% 30.21 in 10.0 mi West 8.1 mph - N/A   Clear
2:35 AM 35.2 °F 28.1 °F 12.2 °F 39% 30.20 in 10.0 mi WSW 9.2 mph - N/A   Clear
2:55 AM 35.4 °F 30.5 °F 12.2 °F 38% 30.20 in 10.0 mi West 5.8 mph - N/A   Clear
3:15 AM 34.3 °F 31.4 °F 12.2 °F 40% 30.20 in 10.0 mi West 3.5 mph - N/A   Clear
3:35 AM 32.4 °F 27.9 °F 12.2 °F 43% 30.20 in 10.0 mi West 4.6 mph - N/A   Clear
3:55 AM 29.3 °F 24.3 °F 12.0 °F 49% 30.19 in 10.0 mi SW 4.6 mph - N/A   Clear
4:15 AM 33.1 °F 27.7 °F 12.7 °F 43% 30.18 in 10.0 mi SW 5.8 mph - N/A   Clear
4:35 AM 30.4 °F 25.6 °F 12.6 °F 48% 30.18 in 10.0 mi SSW 4.6 mph - N/A   Clear
4:55 AM 32.0 °F 26.4 °F 12.9 °F 45% 30.17 in 10.0 mi WSW 5.8 mph - N/A   Clear
5:15 AM 33.6 °F 28.4 °F 12.2 °F 41% 30.16 in 10.0 mi West 5.8 mph - N/A   Clear
5:35 AM 36.9 °F 33.1 °F 11.8 °F 36% 30.17 in 10.0 mi West 4.6 mph - N/A   Clear
5:55 AM 35.8 °F 30.9 °F 12.0 °F 38% 30.17 in 10.0 mi WSW 5.8 mph - N/A   Clear
6:15 AM 36.5 °F 32.7 °F 11.8 °F 36% 30.17 in 10.0 mi WSW 4.6 mph - N/A   Clear
6:35 AM 37.6 °F 35.1 °F 11.8 °F 35% 30.17 in 10.0 mi WNW 3.5 mph - N/A   Clear
6:55 AM 36.9 °F 33.1 °F 11.8 °F 36% 30.17 in 10.0 mi WSW 4.6 mph - N/A   Clear
7:15 AM 35.4 °F 28.4 °F 12.2 °F 38% 30.17 in 10.0 mi SW 9.2 mph - N/A   Clear
7:35 AM 36.9 °F 31.4 °F 12.7 °F 37% 30.18 in 10.0 mi SW 6.9 mph - N/A   Clear
7:55 AM 38.7 °F 32.9 °F 12.7 °F 35% 30.18 in 10.0 mi West 8.1 mph - N/A   Clear
8:15 AM 39.4 °F 36.1 °F 13.1 °F 34% 30.18 in 10.0 mi West 4.6 mph - N/A   Clear
8:35 AM 40.5 °F 38.4 °F 14.2 °F 34% 30.18 in 10.0 mi WSW 3.5 mph - N/A   Clear
8:55 AM 42.8 °F 38.6 °F 13.6 °F 31% 30.18 in 10.0 mi West 6.9 mph - N/A   Clear
9:15 AM 44.8 °F 41.0 °F 14.4 °F 29% 30.18 in 10.0 mi West 6.9 mph - N/A   Clear
9:35 AM 47.8 °F - 15.3 °F 27% 30.18 in 10.0 mi WSW 6.9 mph - N/A   Clear
9:55 AM 50.0 °F - 15.4 °F 25% 30.19 in 10.0 mi West 8.1 mph - N/A   Clear
10:15 AM 52.0 °F - 15.1 °F 23% 30.19 in 10.0 mi West 8.1 mph - N/A   Clear
10:35 AM 54.1 °F - 16.2 °F 22% 30.19 in 10.0 mi WSW 4.6 mph - N/A   Clear
10:55 AM 56.3 °F - 16.9 °F 21% 30.19 in 10.0 mi SW 5.8 mph - N/A   Clear
11:15 AM 58.1 °F - 16.3 °F 20% 30.20 in 10.0 mi NNE 5.8 mph - N/A   Clear
11:35 AM 61.5 °F - 15.4 °F 17% 30.19 in 10.0 mi North 4.6 mph - N/A   Clear
11:55 AM 62.8 °F - 14.4 °F 15% 30.18 in 10.0 mi NNE 4.6 mph - N/A   Clear
12:15 PM 63.0 °F - 13.8 °F 15% 30.17 in 10.0 mi NE 4.6 mph - N/A   Clear
12:35 PM 63.9 °F - 14.7 °F 15% 30.15 in 10.0 mi NNE 3.5 mph - N/A   Clear
12:55 PM 65.1 °F - 16.3 °F 15% 30.14 in 10.0 mi NNE 6.9 mph - N/A   Clear
1:15 PM 65.8 °F - 16.0 °F 15% 30.12 in 10.0 mi WNW 3.5 mph - N/A   Clear
1:35 PM 67.8 °F - 17.1 °F 14% 30.11 in 10.0 mi Calm Calm - N/A   Clear
1:55 PM 68.4 °F - 18.3 °F 15% 30.09 in 10.0 mi ENE 4.6 mph - N/A   Clear
2:15 PM 68.4 °F - 19.0 °F 15% 30.09 in 10.0 mi Calm Calm - N/A   Clear
2:35 PM 68.9 °F - 19.6 °F 15% 30.08 in 10.0 mi East 3.5 mph - N/A   Clear
2:55 PM 68.4 °F - 20.3 °F 16% 30.08 in 10.0 mi East 4.6 mph - N/A   Clear
3:15 PM 68.0 °F - 20.1 °F 16% 30.07 in 10.0 mi East 4.6 mph - N/A   Clear
3:35 PM 68.0 °F - 20.5 °F 16% 30.06 in 10.0 mi East 4.6 mph - N/A   Clear
3:55 PM 68.0 °F - 20.5 °F 16% 30.06 in 10.0 mi East 3.5 mph - N/A   Clear
4:15 PM 68.0 °F - 22.1 °F 18% 30.06 in 10.0 mi Calm Calm - N/A   Clear
4:35 PM 67.5 °F - 24.1 °F 19% 30.07 in 10.0 mi SSE 3.5 mph - N/A   Clear
4:55 PM 66.6 °F - 28.4 °F 24% 30.07 in 10.0 mi South 3.5 mph - N/A   Clear
5:15 PM 65.8 °F - 24.8 °F 21% 30.07 in 10.0 mi South 4.6 mph - N/A   Clear
5:35 PM 65.1 °F - 25.7 °F 23% 30.07 in 10.0 mi South 3.5 mph - N/A   Clear
5:55 PM 64.8 °F - 22.6 °F 20% 30.06 in 7.0 mi South 4.6 mph - N/A   Clear
6:15 PM 62.2 °F - 21.9 °F 21% 30.06 in 10.0 mi South 5.8 mph - N/A   Clear
6:35 PM 58.5 °F - 21.2 °F 24% 30.06 in 10.0 mi South 5.8 mph - N/A   Clear
6:55 PM 59.2 °F - 20.7 °F 23% 30.06 in 10.0 mi SW 5.8 mph - N/A   Clear
7:15 PM 58.3 °F - 20.1 °F 23% 30.06 in 10.0 mi SSW 4.6 mph - N/A   Clear
7:35 PM 57.4 °F - 19.4 °F 23% 30.06 in 10.0 mi SSW 5.8 mph - N/A   Clear
7:55 PM 56.1 °F - 18.5 °F 23% 30.06 in 10.0 mi WSW 4.6 mph - N/A   Clear
8:15 PM 55.6 °F - 19.4 °F 24% 30.05 in 10.0 mi West 3.5 mph - N/A   Clear
9:15 PM 52.9 °F - 20.3 °F 28% 30.03 in 10.0 mi WSW 4.6 mph - N/A   Clear
9:35 PM 53.6 °F - 20.3 °F 27% 30.03 in 10.0 mi West 3.5 mph - N/A   Clear
9:55 PM 51.1 °F - 22.3 °F 32% 30.03 in 10.0 mi WSW 3.5 mph - N/A   Clear
10:15 PM 53.1 °F - 19.8 °F 27% 30.02 in 10.0 mi SSW 3.5 mph - N/A   Scattered Clouds
10:35 PM 53.4 °F - 20.1 °F 27% 30.01 in 10.0 mi South 6.9 mph - N/A   Scattered Clouds
10:55 PM 54.5 °F - 19.2 °F 25% 30.01 in 10.0 mi South 6.9 mph - N/A   Mostly Cloudy
11:15 PM 54.5 °F - 18.7 °F 25% 30.00 in 10.0 mi SSW 4.6 mph - N/A   Overcast
11:35 PM 53.4 °F - 19.8 °F 27% 29.99 in 10.0 mi South 6.9 mph - N/A   Overcast
11:55 PM 53.8 °F - 19.0 °F 26% 29.99 in 10.0 mi SSW 3.5 mph - N/A   Overcast